DW4161 Weather Reports


Display with metric or nautical units.
time (UTC)temp
F
wind
direction
speed
MPH
gust
MPH
rain 1hr
in
rain 24hr
in
rain mn
in
humidity
%
barometer
mb
20180919013019 69 217 0.0 2.0 0.00 0.00 0.00 26 1021.2
20180919011535 70 146 1.0 3.0 0.00 0.00 0.00 25 1021.2
20180919010029 71 207 0.0 4.0 0.00 0.00 0.00 24 1021.2
20180919004533 72 172 3.0 8.0 0.00 0.00 0.00 23 1021.1
20180919003027 72 117 5.0 8.0 0.00 0.00 0.00 23 1021.1
20180919001518 73 274 2.0 6.0 0.00 0.00 0.00 22 1021.2
20180919000034 74 193 1.0 5.0 0.00 0.00 0.00 22 1021.2
20180918234518 75 318 1.0 7.0 0.00 0.00 0.00 21 1021.1
20180918233016 77 309 3.0 8.0 0.00 0.00 0.00 19 1021.2
20180918231530 77 295 3.0 9.0 0.00 0.00 0.00 18 1021.3
20180918230016 77 158 7.0 14.0 0.00 0.00 0.00 18 1021.3
20180918224524 76 277 4.0 8.0 0.00 0.00 0.00 18 1021.4
20180918223010 75 293 2.0 13.0 0.00 0.00 0.00 18 1021.5
20180918221546 77 129 3.0 12.0 0.00 0.00 0.00 17 1021.6
20180918220010 78 262 5.0 12.0 0.00 0.00 0.00 17 1021.7
20180918214521 78 311 6.0 17.0 0.00 0.00 0.00 18 1021.9
20180918213014 78 186 3.0 11.0 0.00 0.00 0.00 18 1022.2
20180918211538 78 133 6.0 11.0 0.00 0.00 0.00 19 1022.2
20180918205057 77 194 2.0 11.0 0.00 0.00 0.00 19 1022.4
20180918203107 78 278 5.0 12.0 0.00 0.00 0.00 18 1022.6
20180918201614 76 316 2.0 11.0 0.00 0.00 0.00 21 1022.8
20180918200100 76 156 5.0 9.0 0.00 0.00 0.00 21 1023.0
20180918193110 76 342 6.0 13.0 0.00 0.00 0.00 21 1023.2
20180918191630 75 300 4.0 10.0 0.00 0.00 0.00 21 1023.5
20180918190140 75 345 4.0 10.0 0.00 0.00 0.00 22 1023.8
20180918184629 75 335 4.0 12.0 0.00 0.00 0.00 22 1024.0
20180918183043 74 304 4.0 14.0 0.00 0.00 0.00 24 1024.1
20180918181627 74 311 4.0 9.0 0.00 0.00 0.00 25 1024.3
20180918180223 72 309 3.0 10.0 0.00 0.00 0.00 27 1024.6
20180918174536 71 342 4.0 11.0 0.00 0.00 0.00 28 1025.0
20180918173039 72 203 5.0 18.0 0.00 0.00 0.00 27 1025.2
20180918171547 72 77 3.0 10.0 0.00 0.00 0.00 28 1025.3
20180918170032 71 304 5.0 14.0 0.00 0.00 0.00 29 1025.3
20180918164550 70 316 6.0 14.0 0.00 0.00 0.00 29 1025.3
20180918163051 70 280 2.0 7.0 0.00 0.00 0.00 31 1025.5
20180918161554 68 321 4.0 12.0 0.00 0.00 0.00 32 1025.6
20180918160032 67 298 2.0 6.0 0.00 0.00 0.00 33 1025.6
20180918154533 67 149 2.0 6.0 0.00 0.00 0.00 34 1025.7
20180918153052 66 328 2.0 5.0 0.00 0.00 0.00 34 1025.8
20180918151545 65 156 1.0 4.0 0.00 0.00 0.00 35 1025.8
20180918150015 63 173 0.0 4.0 0.00 0.00 0.00 38 1025.7
20180918144514 60 139 1.0 3.0 0.00 0.00 0.00 39 1025.7
20180918143019 58 137 1.0 3.0 0.00 0.00 0.00 41 1025.8
20180918141527 56 130 2.0 3.0 0.00 0.00 0.00 44 1025.8
20180918140031 56 134 2.0 3.0 0.00 0.00 0.00 45 1025.7
20180918134521 55 145 1.0 2.0 0.00 0.00 0.00 44 1025.6
20180918133056 54 134 0.0 2.0 0.00 0.00 0.00 45 1025.5
20180918093058 56 359 0.0 1.0 0.00 0.00 0.00 44 1024.5
20180918090034 57 315 1.0 3.0 0.00 0.00 0.00 42 1024.5
20180918084539 58 338 1.0 2.0 0.00 0.00 0.00 42 1024.4
20180918083030 58 336 1.0 2.0 0.00 0.00 0.00 41 1024.5
20180918081543 59 219 0.0 1.0 0.00 0.00 0.00 40 1024.5
20180918080031 59 235 0.0 1.0 0.00 0.00 0.00 40 1024.4
20180918074528 59 128 0.0 1.0 0.00 0.00 0.00 40 1024.4
20180918073025 60 141 0.0 1.0 0.00 0.00 0.00 39 1024.5
20180918071533 59 100 0.0 0.0 0.00 0.00 0.00 39 1024.5
20180918070018 60 98 0.0 0.0 0.00 0.00 0.00 38 1024.5
20180918064527 61 97 0.0 0.0 0.00 0.00 0.00 37 1024.5
20180918063017 61 97 0.0 0.0 0.00 0.00 0.00 36 1024.6
20180918061517 62 94 0.0 2.0 0.00 0.00 0.00 35 1024.7
20180918060014 62 120 1.0 3.0 0.00 0.00 0.00 35 1024.7
20180918054511 62 115 0.0 0.0 0.00 0.00 0.00 34 1024.8
20180918053026 64 95 0.0 2.0 0.00 0.00 0.00 32 1024.7
20180918051519 63 94 1.0 3.0 0.00 0.00 0.00 32 1024.8
20180918050018 63 5 1.0 1.0 0.00 0.00 0.00 32 1024.8
20180918044511 64 5 0.0 1.0 0.00 0.00 0.00 32 1024.8
20180918043028 64 5 0.0 1.0 0.00 0.00 0.00 32 1024.8
20180918041522 64 5 0.0 1.0 0.00 0.00 0.00 32 1024.9
20180918040010 64 3 0.0 1.0 0.00 0.00 0.00 32 1024.9
20180918034508 64 6 1.0 2.0 0.00 0.00 0.00 31 1024.9
20180918033050 65 101 0.0 2.0 0.00 0.00 0.00 30 1025.1
20180918021510 66 318 0.0 3.0 0.00 0.00 0.00 29 1024.4
20180918020009 68 1 1.0 3.0 0.00 0.00 0.00 26 1024.2
20180918014502 69 165 0.0 2.0 0.00 0.00 0.00 24 1024.1